Winnerscup USA - 1

Station: Loft Fly - T Race

Distance: 1 Miles

Release: 10-Jan-2018 13:30

Weather Release:    Arrival: same

Wind at Release:     Wind at Arrival:

Temp at Release: °    Temp at Arrival: °

Lofts: 53

Birds: 285

Clocked: 283

Good Luck to Everyone!
Drops Pos Breeder Pigeon Name Color Sex Ent Arrival Speed To Win Eligible ABC
201 Canto & Wiltz - MA 10985-AU17-AA Dream City BB C 3 15:52:30.00 12.351 00:33:51 Hold
202 Nesneb Racing Loft - AL 17142-AU17-MOB Cash Master BC H 5 15:52:37.00 12.341 00:33:58 Yes
202 Ganus Family Loft - IN 0295-AU17-GFL Delerionn BC H 4 15:52:37.00 12.341 00:33:58 Yes
204 Bolgar Loft - CA 7625-IF17-FTST NICHOLEYE BB C 3 15:52:52.00 12.319 00:34:13 Yes
205 Larry Lewis - OK 8163-AU17-TRPC Follow The Money BC C 7 15:53:06.00 12.299 00:34:27 Yes
206 Goshentown Lofts - TN 1788-AU17-NPA Native Power BCWF C 4 15:53:07.00 12.298 00:34:28 Yes
207 G & L Loft - OR 2392-AU17-WPC American Standard BWFP C 4 15:53:15.00 12.286 00:34:36 Yes
208 P/R Loft - CA 0280-AU17-GSF The Puritan BC C 3 15:53:17.00 12.283 00:34:38 Yes
208 Johnny's Automotive - CA 32893-AU17-JEDD Time Warp BB H 7 15:53:17.00 12.283 00:34:38 Yes
210 Larry Lewis - OK 8151-AU17-TRPC Only Hope BC H 8 15:53:18.00 12.282 00:34:39 Yes
211 Jack's Loft - CA 36716-AU17-ARPU The Magician GR C 8 15:53:29.00 12.266 00:34:50 Yes
212 Sexton's Loft - IA 31786-AU17-AA Dialed 4 Dollars WHGZ C 9 15:53:39.00 12.252 00:35:00 Yes
213 Jack's Loft - CA 36720-AU17-ARPU Top Choice BC H 9 15:53:41.00 12.249 00:35:02 Yes
214 Hollywood Lou Loft - FL 0064-AU17-LOU American South BB C 8 15:53:51.00 12.235 00:35:12 Yes
215 Sienna Loft - NC 36771-AU17-AA Good Night BB C 9 15:53:56.00 12.228 00:35:17 Yes
216 Nesler Boyz - CA 1766-AU17-TCH Secret Window BB H 5 15:54:02.00 12.219 00:35:23 Yes
216 Champ Camp - IN 0281-AU17-CHMP Decent Exposure BWFP H 9 15:54:02.00 12.219 00:35:23 Yes
218 Sienna Loft - NC 37802-AU17-AA Admiral Halsey BB C 10 15:54:04.00 12.217 00:35:25 Yes
219 A B C Loft2 - NY 59780-AU17-ARPU National Asset BB C 8 15:54:07.00 12.212 00:35:28 Yes
220 Daehn/Miele - FL 3839-AU17-FOYS Melany BB H 11 15:54:12.00 12.205 00:35:33 Yes
221 John Partridge - CA 0618-AU17-PASO The Aristocrat BC C 5 15:54:14.00 12.202 00:35:35 Yes
222 Nesler Boyz - CA 1797-AU17-TCH Done It All BC H 6 15:54:15.00 12.201 00:35:36 Yes
223 Spirit In The Sky - IL 0375-AU17-LCC Highest Bid BC C 4 15:54:18.00 12.197 00:35:39 Yes
224 Dream Team - VT 0698-AU17-JCZL Constant Pleasure BB C 7 15:54:21.00 12.193 00:35:42 Yes
225 Valhalla Loft - CA 0482-AU17-WSJ COBALT BB C 2 15:54:27.00 12.184 00:35:48 Yes
226 Tar Syndicate - PA 12035-AU17-LLP Syndicate BC H 3 15:54:28.00 12.183 00:35:49 Yes
227 Dream Team - VT 0824-AU17-JCZL Closing Argument BB C 8 15:54:34.00 12.174 00:35:55 Yes
228 Sheila Gabler - IL 0225-AU17-ADL Outlaw Josey Wells BCW C 5 15:54:38.00 12.169 00:35:59 Yes
229 Dream Team - VT 0358-AU17-JCZL Game On BC C 9 15:54:43.00 12.162 00:36:04 Yes
230 Dal-Tex R P C - TX 0440-AU17-DLLS Blue Horizon BB H 4 15:54:51.00 12.151 00:36:12 Yes
231 A P C Loft - TX 17377-AU17-APC Tantric Sleeper SMOK H 6 15:54:55.00 12.145 00:36:16 Yes
232 Larry Lewis - OK 8146-AU17-TRPC No Exemption BC C 9 15:54:56.00 12.144 00:36:17 Yes
233 Sofija Loft - IL 0023-AU17-BEKO Muves BB H 3 15:54:58.00 12.141 00:36:19 Yes
234 P/R Loft - CA 0282-AU17-GSF Mezmerise BB H 4 15:55:00.00 12.138 00:36:21 Yes
235 Jimmy Zheng Loft - MS 0680-AU17-ZHNG Emperors Deciple BC C 5 15:55:16.00 12.116 00:36:37 Yes
236 Tar Syndicate - PA 7976-AU17-TAR Game to Win DC C 4 15:55:22.00 12.107 00:36:43 Yes
237 Ken Easley-Silvercreek - NM 5162-AU17-ESLY Ria BB C 4 15:55:33.00 12.092 00:36:54 Hold
238 John Labat - HI 0024-AU17-LBAT Kihei BB H 1 15:55:38.00 12.085 00:36:59 Yes
239 Ken Easley-Silvercreek - NM 5151-AU17-ESLY Urban Kone BB C 5 15:55:40.00 12.082 00:37:01 Hold
240 Johnny's Automotive - CA 32889-AU17-JEDD Blue Diva BB H 8 15:55:48.00 12.071 00:37:09 Yes
240 A D L Loft - IL 0192-AU17-ADL Over Achiever BBWF C 4 15:55:48.00 12.071 00:37:09 Yes
242 Daehn/Miele - FL 0401-AU17-NWFI Super Man BB C 12 15:55:58.00 12.058 00:37:19 Yes
242 Bolgar Loft - CA 15842-AU17-FOYS Reziko SLAT C 4 15:55:58.00 12.058 00:37:19 Yes
244 Goshentown Lofts - TN 1796-AU17-NPA Dossier 96 BB H 5 15:56:02.00 12.052 00:37:23 Yes
245 1-Tonyloft - VA 5629-AU17-TONY Cinderella BC H 3 15:56:06.00 12.047 00:37:27 Yes
246 Nesler Boyz - CA 1798-AU17-TCH Fever Pitch RCPD H 7 15:56:11.00 12.040 00:37:32 Yes
247 Bluestreak - OK 7885-AU17-TRPC Emperors Dream BWFP C 5 15:56:12.00 12.038 00:37:33 Yes
248 Ken Easley-Silvercreek - NM 5125-AU17-ESLY Frans CP H 6 15:56:15.00 12.034 00:37:36 Hold
249 Ojibwe Loft - OK 0041-AU17-OJIB HIGHWATER BB C 2 15:56:25.00 12.020 00:37:46 Yes
250 Racing Pigeon Mall - WA 0721-AU17-RPM True Endeavor BB C 9 15:56:29.00 12.015 00:37:50 Yes
251 Ojibwe Loft - OK 0254-AU17-WACO Breaking Brad BB C 3 15:56:33.00 12.010 00:37:54 Yes
252 Sarrett Racing Pigeons - TX 7025-AU17-PPH Call Me Sarge BC C 5 15:56:38.00 12.003 00:37:59 Yes
252 Racing Pigeon Mall - WA 0730-AU17-RPM Opium BB C 10 15:56:38.00 12.003 00:37:59 Yes
254 Tar Syndicate - PA 7815-AU17-TAR Packer BB H 5 15:56:42.00 11.997 00:38:03 Yes
255 Ganus Family Loft - IN 0955-AU17-GFL Spritz BC C 5 15:56:46.00 11.992 00:38:07 Yes
256 Hi-Cal Connection - CA 0785-AU17-HCAL Under Seige PEN C 5 15:56:55.00 11.980 00:38:16 Yes
257 Sexton's Loft - IA 31762-AU17-AA Ladesma BC H 10 15:56:58.00 11.976 00:38:19 Yes
258 Prout Lofts - CA 28550-AU17-JEDD TABLOID BC C 1 15:56:59.00 11.974 00:38:20 Yes
259 Tanai Kantisiri - CA 2929-AU17-COM Prelude BB H 2 15:57:00.00 11.973 00:38:21 Yes
260 Champ Camp - IN 0225-AU17-CHMP Point Well Taken BB C 10 15:57:04.00 11.967 00:38:25 Yes
261 Daehn/Miele - FL 3832-AU17-FOYS Redefined Exit BC C 13 15:57:07.00 11.963 00:38:28 Yes
262 Canto & Wiltz - MA 10998-AU17-AA Orbitaar BB C 4 15:57:18.00 11.948 00:38:39 Yes
262 Ojibwe Loft - OK 0042-AU17-OJIB Desert Wren BC H 4 15:57:18.00 11.948 00:38:39 Yes
264 A D L Loft - IL 0190-AU17-ADL Allegiant BB C 5 15:57:46.00 11.911 00:39:07 Yes
265 Prout Lofts - CA 0057-AU17-PRT Privileged Few BCP C 2 15:57:56.00 11.897 00:39:17 Yes
266 Daehn/Miele - FL 3831-AU17-FOYS Kaapi BC C 14 15:57:57.00 11.896 00:39:18 Yes
267 Dream Team - VT 0576-AU17-JCZL Maze Runner BB C 10 15:58:17.00 11.869 00:39:38 Yes
268 A B C Loft2 - NY 1441-AU17-BORO Manhattan BC C 9 15:58:25.00 11.859 00:39:46 Yes
269 Sofija Loft - IL 0019-AU17-BEKO Baraccuda BB H 4 15:59:01.00 11.811 00:40:22 Yes
270 Ken Easley-Silvercreek - NM 5129-AU17-ESLY Frida BB H 7 15:59:04.00 11.807 00:40:25 Hold
271 Bolgar Loft - CA 7641-IF17-FTST KID KIEV CP C 5 16:00:30.00 11.694 00:41:51 Yes
272 Bolgar Loft - CA 7624-IF17-FTST Odessa BB H 6 16:00:40.00 11.681 00:42:01 Yes
273 Jack's Loft - CA 4400-AU17-FOYS Peanuts BC C 10 16:01:22.00 11.627 00:42:43 Yes
274 Aurelio Aranda - AZ 42214-AU17-AA ARMALITE DCWF C 3 16:01:39.00 11.606 00:43:00 Yes
275 Joe Zarachowicz - MD 2261-AU17-CCC Castaway GR C 5 16:01:55.00 11.585 00:43:16 Yes
276 Huan Qiu Zhang - NC 1709-AU17-JNC Kryto Run BB C 4 16:02:06.00 11.571 00:43:27 Hold
277 Prout Lofts - CA 0084-AU17-PRT Neslers Pick BB C 3 16:02:18.00 11.556 00:43:39 Yes
278 Sexton's Loft - IA 31766-AU17-AA Adverse Condition BB C 11 16:02:37.00 11.532 00:43:58 Yes
279 Bieche-Stevenson - CA 7497-AU17-BIEC Maximus BB C 5 16:03:19.00 11.480 00:44:40 Yes
280 G & L Loft - OR 2379-AU17-WPC Game Changer BB H 5 16:04:12.00 11.414 00:45:33 Yes
281 Joe Zarachowicz - MD 2234-AU17-CCC Pimlico BB C 6 16:04:35.00 11.385 00:45:56 Yes
282 Daehn/Miele - FL 3842-AU17-FOYS Easy Ryder BC C 15 16:04:58.00 11.357 00:46:19 Yes
283 Hosanna Lofts - OK 35982-AU17-ARPU Flicka BB C 2 16:38:25.00 9.341 01:19:46 Yes

There are 280 bird records

Note: These Race Results are unofficial and subject to change until verified by the Race Committee and declared final.